Location: Chiroubles
(46.1812°N, 4.6660°E)
Time: 03:53:28
(UTC+00:00)

Tiros 1 - Pass Details

Date: 26 November 2020
Orbit: 630 x 663 km, 48.4° (Epoch: 16 January)

Event Time Altitude Azimuth Distance (km) Brightness Sun altitude
Rises 17:15:33 0° 253° (WSW) 2,987 12.7 -12.9°
Reaches altitude 10° 17:17:54 10° 253° (WSW) 2,074 11.3 -13.2°
Maximum altitude 17:22:42 87° 341° (NNW) 663 7.2 -14.0°
Enters shadow 17:25:38 23° 72° (ENE) 1,374 8.2 -14.5°
